Regional Weather Roundup
Issued by NWS Upton, NY

Current Version | Previous Version | Graphics & Text | Print | Product List | Glossary Off
Versions: 1 2 3 4 5 6 7 8 9 10 11 12 13 14 15 16 17 18 19 20 21 22 23 24 25 26 27 28 29 30 31 32 33 34 35 36 37 38 39 40 41 42 43 44 45 46 47 48 49 50

000
ASUS41 KOKX 160805
RWROKX
REGIONAL WEATHER ROUNDUP
NATIONAL WEATHER SERVICE NEW YORK NY
400 AM EDT TUE SEP 16 2014

NOTE: "FAIR" INDICATES FEW OR NO CLOUDS BELOW 12,000 FEET WITH NO
SIGNIFICANT WEATHER AND/OR OBSTRUCTIONS TO VISIBILITY.

NYZ071-072-176-178-NJZ106-104-160900-
NEW YORK CITY METRO AREA


CITY           SKY/WX    TMP DP  RH WIND       PRES   REMARKS
CENTRAL PARK   MOCLDY    62  53  72 VRB5      30.07S
LAGUARDIA APRT CLOUDY    63  54  72 SW6       30.04S
KENNEDY INTL   CLOUDY    64  55  72 SW10      30.05F
NEWARK/LIBERTY MOCLDY    60  53  77 SW5       30.05S
BRNX BOT. GARD   N/A     63  52  67 W5        30.04S
TETERBORO      MOCLDY    59  52  77 CALM      30.03F
$$

NYZ177-179-078>081-160900-
LONG ISLAND NEW YORK

CITY           SKY/WX    TMP DP  RH WIND       PRES   REMARKS
FARMINGDALE    MOCLDY    60  53  77 CALM      30.05S
ISLIP          CLOUDY    58  52  80 CALM      30.03F
SHIRLEY        CLOUDY    53  50  89 CALM      30.05F
WESTHAMPTON    CLOUDY    50  46  86 CALM      30.06F
MONTAUK POINT    N/A     55  51  86 CALM      30.06F
$$

NYZ052-065-067-160900-
HUDSON VALLEY

CITY           SKY/WX    TMP DP  RH WIND       PRES   REMARKS
WHITE PLAINS   CLOUDY    56  53  90 CALM      30.04F
NEWBURGH         N/A     55  52  88 CALM      30.05S
MONTGOMERY     CLOUDY    52  50  93 CALM      30.03F
POUGHKEEPSIE   CLOUDY    54  51  90 CALM      30.03S
ALBANY         LGT RAIN  54  51  90 N5        30.03R
$$

NJZ001-105-106-008-010-013-015-019>022-104-160900-
NEW JERSEY

CITY           SKY/WX    TMP DP  RH WIND       PRES   REMARKS
NEWARK/LIBERTY MOCLDY    60  53  77 SW5       30.05S
TETERBORO      MOCLDY    59  52  77 CALM      30.03F
CALDWELL       MOCLDY    54  50  86 CALM      30.05F
MORRISTOWN     CLOUDY    52  48  87 CALM      30.05S
SOMERVILLE     CLOUDY    52  49  89 CALM      30.03F
LINDEN         CLOUDY    63  57  81 CALM      30.06F
SUSSEX         CLOUDY    52  49  89 CALM      30.04F
ANDOVER          N/A     50  49  96 CALM      30.04F
TRENTON        PTCLDY    57  52  83 CALM      30.03F
MILLVILLE      CLOUDY    59  57  93 SE3       30.03F
ATLANTIC CITY  MOCLDY    56  54  93 CALM      30.04F
WRIGHTSTOWN    MOCLDY    57  54  89 E2        30.01F
TOMS RIVER     CLOUDY    52  48  87 CALM      30.05F
BELMAR         MOCLDY    57  50  77 W6        30.05S
$$

PAZ047>061-062-071-160900-
EASTERN PENNSYLVANIA

CITY           SKY/WX    TMP DP  RH WIND       PRES   REMARKS
PHILADELPHIA   PTCLDY    62  55  77 CALM      30.03F
ALLENTOWN      PTCLDY    51  48  89 NE3       30.02F
SCRANTON       CLOUDY    56  50  80 CALM      30.02F
$$

CTZ002-004>006-009-010-012-RIZ004-006-007-MAZ004-011-015-160900-
SOUTHERN NEW ENGLAND
 IN CT

CITY           SKY/WX    TMP DP  RH WIND       PRES   REMARKS
BRADLEY INTL   CLOUDY    52  48  86 NW3       30.04F
HARTFORD       CLOUDY    55  48  77 CALM      30.05F
DANBURY        CLOUDY    52  50  93 CALM      30.06F
WTRBRY/OXFORD  CLOUDY    54  46  76 CALM      30.06S
BRIDGEPORT     CLOUDY    65  52  62 S10       30.04F
MERIDEN        CLOUDY    53  48  83 CALM      30.05F
NEW HAVEN      CLOUDY    57  51  80 N3        30.05S
CHESTER        FAIR      52  48  87 CALM      30.06F
GROTON         CLOUDY    52  50  93 CALM      30.04F
WILLIMANTIC    CLOUDY    49  46  90 CALM      30.06F

 IN RI

CITY           SKY/WX    TMP DP  RH WIND       PRES   REMARKS
PROVIDENCE     MOCLDY    52  48  86 W3        30.06F
BLOCK ISLAND   MOCLDY    57  48  72 S3        30.05F
WESTERLY       MOCLDY    51  48  89 CALM      30.06F

 IN MA

CITY           SKY/WX    TMP DP  RH WIND       PRES   REMARKS
BOSTON         CLOUDY    56  50  80 S3        30.05F
WORCESTER      MOCLDY    51  45  79 SW5       30.05F
WESTFIELD      CLOUDY    51  49  92 CALM      30.05F
PROVINCETOWN   CLOUDY    57  48  72 SE5       30.06F
NANTUCKET      CLOUDY    59  49  69 SE10      30.06F
$$

ANZ330-335-338-340-345-350-353-355-160900-
COASTAL MARINE OBSERVATIONS


STATION/POSITION TIME  SKY/WX   TEMP    WIND        PRES    VSBY  WAVE
                                AIR SEA DIR/SP/G                  HT/PER
                 (UTC)          (F)     (DEG/KT/KT) (MB)    (MI)  (FT/S)
NY HARB ENTRANCE NOT AVBL
4S FIRE IS       NOT AVBL
23SW MTP         0800                                 N/A           2/ 8
HUDSON CANYON    0800            67 73  300/  4/  6 1017.2          2/13
EXECUTION ROCKS  0800            65 71  220/  8/ 12   N/A
WESTERN LI SOUND 0800            64     190/  6/  8   N/A           0
CENTRAL LI SOUND 0700            65 71  200/ 10/ 12   N/A           1/ 3
EASTERN LI SOUND 0700            61 68   40/  6/  8   N/A
ROBBINS REEF     0800            62     260/  9/ 10 1016.1
$$


>>>>>>>>>>>>>>>>>>>>>>>>>>>> KEY <<<<<<<<<<<<<<<<<<<<<<<<<<<
>                                                          <
>     SKY/WX - SKY CONDITION/PRESENT WEATHER               <
>     TMP    - TEMPERATURE IN FAHRENHEIT                   <
>     DP     - DEWPOINT IN FAHRENHEIT                      <
>     RH     - RELATIVE HUMIDITY IN PERCENT                <
>     WIND   - DIRECTION AND SPEED IN MPH                  <
>     PRES   - MEAN SEA LEVEL PRESSURE IN INCHES OF HG     <
>     WCI    - WIND CHILL INDEX                            <
>     VSB    - VISIBILITY IN MILES                         <
>     HX     - HEAT INDEX                                  <
>     TC     - TEMPERATURE IN CELSIUS                      <
>     VRB    - VARIABLE WIND DIRECTION                     <
>                                                          <
>>>>>>>>>>>>>>>>>>>>>>>>>>>> KEY <<<<<<<<<<<<<<<<<<<<<<<<<<<




USA.gov is the U.S. government's official web portal to all federal, state and local government web resources and services.